Total_Precipitation_Accumulation
3.65 3.76 3.89 4.11 3.82 3.87 4.34 4.55 4.38 4.57 4.60 4.27 3.94 3.54 3.31 3.05 2.96 3.05 3.26 3.29 3.18 3.31 3.66 3.86 3.73 3.64 3.39 3.07 2.95 2.90 2.83 2.69 2.60 2.38 2.20 2.32 2.56 2.44 2.10 1.91 1.87 1.67 1.60
3.96 4.17 4.10 4.19 3.94 3.73 3.96 4.22 4.26 4.94 4.82 4.69 4.22 3.85 3.68 3.50 3.24 3.17 3.28 3.58 3.44 3.20 3.34 3.80 3.96 3.93 3.76 3.47 3.25 3.08 3.01 2.92 2.62 2.23 2.09 2.13 2.34 2.48 2.33 2.15 1.97 1.79 1.60
3.92 4.18 4.36 4.33 4.06 3.81 4.05 4.23 4.45 4.73 4.50 4.40 4.21 4.02 3.85 3.71 3.43 3.30 3.59 3.84 3.59 3.43 3.35 3.55 3.94 4.14 4.21 4.23 3.90 3.49 3.11 2.88 2.70 2.44 2.24 2.17 2.31 2.45 2.45 2.39 2.23 2.00 1.75
3.92 4.17 4.10 4.01 4.11 4.05 4.33 4.57 4.68 4.75 4.65 4.48 4.26 3.92 3.76 3.82 3.39 3.24 3.28 3.37 3.47 3.22 3.43 3.75 4.02 4.11 4.37 4.57 4.57 4.47 3.93 3.32 3.02 2.71 2.43 2.30 2.36 2.36 2.34 2.35 2.32 2.11 1.87
3.73 3.97 3.95 4.08 4.17 4.19 4.30 3.93 4.52 4.57 4.66 4.49 3.89 3.73 3.45 3.45 3.34 2.99 2.97 2.82 2.99 3.12 3.18 3.32 3.66 3.76 4.33 4.84 5.13 5.22 5.04 4.38 3.66 3.12 2.85 2.61 2.50 2.30 2.19 2.19 2.22 2.12 1.93
3.70 3.93 3.93 4.08 4.11 4.22 4.30 4.28 4.57 4.51 4.36 4.31 3.49 3.35 3.25 2.99 2.92 2.90 2.70 2.68 2.80 2.70 2.89 3.21 3.51 3.23 3.74 4.24 4.47 4.93 5.30 5.05 4.37 3.77 3.49 3.25 3.04 2.70 2.39 2.29 2.32 2.30 2.10
3.81 4.18 4.05 4.44 4.32 4.09 4.06 4.16 4.43 4.35 4.07 4.14 4.12 3.59 2.99 2.67 2.69 2.60 2.69 2.80 2.63 2.70 3.05 3.48 3.61 3.39 3.11 3.20 3.27 3.69 4.55 5.23 5.12 4.64 4.23 3.83 3.64 3.37 2.78 2.55 2.48 2.40 2.29
3.72 3.73 4.14 4.12 4.15 4.26 4.16 4.12 4.33 4.17 3.77 3.98 4.27 4.22 3.48 3.26 2.76 2.23 2.49 2.68 2.77 3.04 3.14 3.18 3.55 3.70 3.38 3.44 2.81 2.76 3.64 4.81 5.40 5.39 4.90 4.40 4.08 3.85 3.47 3.29 2.97 2.61 2.44
3.34 3.50 3.67 3.87 4.21 4.06 4.09 4.18 4.11 4.05 3.80 3.77 3.98 4.33 3.87 3.42 2.90 2.36 2.21 2.47 2.86 3.16 3.13 3.16 3.26 3.45 3.51 3.74 3.54 3.09 3.03 3.45 4.44 5.40 5.47 4.99 4.41 4.00 3.85 3.87 3.64 3.16 2.81
3.31 3.32 3.44 3.63 3.81 3.61 3.68 3.38 3.51 3.82 3.99 3.71 3.82 3.76 3.67 3.60 3.49 2.94 2.49 2.43 2.72 2.92 3.10 3.07 3.19 3.36 3.57 3.99 4.06 3.55 3.14 2.96 3.35 4.50 5.40 5.47 4.97 4.45 4.35 4.46 4.52 4.13 3.50
3.29 3.22 3.24 3.31 3.34 3.21 3.28 3.21 3.45 3.45 3.47 3.47 3.58 3.66 3.76 3.75 3.56 3.38 2.99 2.88 2.78 2.52 2.60 2.82 3.04 3.20 3.39 3.81 4.05 3.73 3.59 3.26 3.14 3.39 4.08 4.76 4.94 4.80 4.60 4.69 5.01 5.07 4.66
3.11 3.02 2.95 2.98 3.00 3.00 3.05 3.11 3.26 3.17 3.21 3.37 3.44 3.48 3.67 3.69 3.76 3.76 3.22 3.00 2.78 2.29 2.26 2.26 2.50 2.81 3.21 3.55 3.44 3.56 3.42 3.16 2.99 2.96 3.06 3.51 3.95 4.25 4.42 4.67 5.16 5.69 5.78
2.59 2.70 2.61 2.73 2.76 2.80 2.84 2.97 3.09 3.08 3.22 3.37 3.28 3.37 3.45 3.40 3.56 3.71 3.64 3.17 2.82 2.40 2.45 2.37 2.35 2.57 2.71 3.12 3.21 3.15 2.88 2.76 2.58 2.52 2.48 2.65 2.93 3.24 3.55 3.96 4.55 5.17 5.63
2.21 2.43 2.56 2.58 2.57 2.59 2.68 2.99 2.83 2.91 3.16 3.20 3.09 3.54 3.42 3.18 3.36 3.44 3.62 3.76 3.35 2.86 2.82 2.64 2.49 2.46 2.57 2.80 2.84 2.78 2.49 2.44 2.19 2.06 2.01 2.02 2.04 2.21 2.47 2.81 3.30 3.75 4.17
2.20 2.28 2.32 2.44 2.56 2.71 2.90 3.10 2.93 3.05 3.33 3.23 3.36 3.64 3.47 3.32 3.35 3.32 3.61 3.94 4.00 3.54 3.11 2.83 2.60 2.49 2.44 2.42 2.54 2.34 2.32 2.36 2.12 1.94 1.82 1.74 1.74 1.71 1.81 1.97 2.21 2.50 2.75
2.27 2.14 2.10 2.20 2.31 2.44 2.66 2.84 2.74 2.90 3.17 3.15 3.22 3.37 3.35 3.27 3.50 3.50 3.62 3.92 4.17 4.07 3.35 3.02 2.87 2.52 2.56 2.16 2.35 2.20 2.17 2.18 1.95 1.81 1.71 1.70 1.70 1.70 1.69 1.69 1.80 1.95 2.15
2.24 2.15 2.13 2.17 2.18 2.15 2.24 2.42 2.42 2.67 2.73 2.77 2.75 2.83 2.81 3.09 3.30 3.30 3.52 3.70 3.96 4.21 3.69 3.31 3.31 3.03 2.99 2.71 2.48 2.27 2.05 1.98 1.80 1.76 1.63 1.57 1.54 1.56 1.61 1.55 1.53 1.61 1.76
2.02 2.11 2.16 2.08 1.98 2.05 2.22 2.25 2.29 2.52 2.61 2.57 2.58 2.69 2.53 2.79 2.95 3.06 3.30 3.45 3.72 4.17 3.95 3.57 3.45 3.31 3.21 3.04 2.84 2.62 2.13 1.83 1.80 1.91 1.72 1.58 1.53 1.51 1.53 1.47 1.41 1.38 1.41
1.82 1.90 1.96 1.90 1.87 2.02 2.27 2.39 2.53 2.58 2.46 2.43 2.42 2.34 2.27 2.50 2.58 2.81 3.02 3.03 3.23 3.66 3.76 3.39 3.19 3.41 3.26 3.07 3.14 2.75 2.45 2.37 1.84 1.83 1.76 1.58 1.52 1.45 1.43 1.43 1.41 1.32 1.29
1.81 1.88 1.95 2.07 2.12 2.14 2.12 2.17 2.34 2.48 2.48 2.32 2.16 2.07 2.10 2.30 2.31 2.50 2.56 2.77 3.01 3.15 3.37 3.29 3.10 3.20 3.21 3.13 3.35 3.10 2.90 2.72 2.31 1.90 1.92 1.71 1.62 1.55 1.45 1.38 1.37 1.37 1.38
1.68 1.91 2.15 2.24 2.24 2.14 1.99 2.10 2.21 2.12 2.15 2.03 1.89 1.78 1.72 1.76 1.84 2.02 1.98 2.29 2.63 2.74 2.82 2.95 2.94 3.03 3.24 3.40 3.25 3.24 3.09 2.91 2.68 2.42 2.38 2.00 1.71 1.52 1.48 1.45 1.43 1.45 1.47
1.73 1.94 2.02 2.08 2.04 1.83 1.96 1.86 1.77 1.78 1.83 1.84 1.84 1.79 1.60 1.52 1.54 1.63 1.67 1.77 2.04 2.19 2.38 2.65 2.73 2.79 3.01 3.31 3.42 3.42 3.32 3.11 2.85 2.62 2.74 2.69 2.31 1.99 1.77 1.50 1.51 1.53 1.58
1.88 1.88 1.84 1.88 1.93 2.06 1.93 1.69 1.61 1.56 1.66 1.74 1.80 1.75 1.47 1.36 1.48 1.44 1.57 1.61 1.70 1.80 1.93 2.21 2.32 2.34 2.62 2.98 3.37 3.38 3.42 3.21 2.95 2.90 3.01 3.01 3.09 2.81 2.22 1.85 1.78 1.57 1.62
2.02 1.96 1.83 1.85 1.89 1.85 1.83 1.64 1.65 1.51 1.50 1.61 1.71 1.76 1.75 1.70 1.62 1.67 1.68 1.58 1.47 1.51 1.58 1.55 1.65 1.91 2.14 2.45 2.88 3.02 3.29 3.44 3.26 3.16 3.23 3.27 3.31 3.51 2.99 2.41 2.24 1.92 1.82
2.07 2.15 2.04 1.95 1.90 1.89 1.88 1.72 1.73 1.61 1.65 1.68 1.79 1.82 1.79 1.72 1.72 1.66 1.62 1.59 1.46 1.40 1.40 1.43 1.45 1.62 1.86 2.03 2.37 2.72 2.99 3.22 3.27 3.36 3.45 3.51 3.41 3.57 3.81 3.33 2.64 2.29 2.02
2.31 2.36 2.20 2.10 2.12 2.15 2.21 2.03 1.96 1.77 1.76 1.77 1.88 1.85 1.74 1.64 1.71 1.60 1.45 1.50 1.48 1.51 1.57 1.53 1.55 1.61 1.66 1.83 2.17 2.43 2.71 3.03 3.06 3.12 2.95 2.97 3.00 3.19 3.63 3.80 3.36 2.68 2.20